Location: Makanda
(37.6176°N, 89.2090°W)
Time: 11:24:02
(UTC+00:00)

HJ-1C - Pass Details

Date: 23 September 2019
Orbit: 434 x 449 km, 97.2° (Epoch: 22 October)

Event Time Altitude Azimuth Distance (km) Brightness Sun altitude
Exits shadow 01:07:50 - 167° (SSE) 1,645 6.0 -15.3°
Reaches altitude 10° 01:08:01 10° 167° (SSE) 1,566 5.9 -15.4°
Maximum altitude 01:11:23 88° 79° (ENE) 454 3.3 -16.0°
Drops below altitude 10° 01:14:47 10° 349° (N) 1,585 6.5 -16.7°
Sets 01:16:50 0° 349° (N) 2,462 7.5 -17.1°
